ECMWFFLT2_850_thetae_084.txt.gz
Theta_e
326 324 320 319 323 326 327 327 325 323 321 319 317 315 313 313 313 314 313 313 312 313 314 315 315 315 317 319 322 325 325 325 324 321 320 321 322 320 318 315 310 309 309 309 310 310 311 311 313 316 320 326 330 332 333 333 331 321 315 315 313 315
328 326 320 321 326 329 331 331 329 327 326 324 322 320 317 315 316 317 315 314 312 313 314 315 315 315 317 319 320 323 324 325 324 323 321 321 323 322 320 317 313 310 310 310 311 312 313 314 316 319 322 326 327 331 335 335 331 321 316 316 315 316
336 330 325 328 330 331 331 331 331 329 329 327 326 326 324 321 320 321 317 313 316 321 323 321 318 315 317 319 320 322 323 324 324 323 323 323 324 324 322 320 316 312 311 312 313 314 315 315 317 320 322 325 327 331 334 335 333 326 320 319 318 318
341 337 335 337 337 336 332 333 335 332 331 329 329 330 329 327 326 325 318 318 329 335 335 334 329 324 322 320 320 323 324 324 324 323 324 324 325 326 324 322 318 314 312 312 313 314 315 317 320 322 324 325 329 333 334 334 332 327 322 321 321 320
342 340 340 341 339 339 336 336 337 335 334 331 331 331 331 333 333 331 325 327 337 340 339 339 337 334 331 325 319 321 324 324 323 323 323 324 325 327 326 323 320 318 316 317 319 319 316 317 321 325 327 327 332 335 334 333 329 323 322 322 322 321
343 341 341 340 338 340 338 338 337 337 338 335 335 333 334 337 336 334 331 332 338 339 338 339 337 337 336 333 327 320 320 323 325 324 322 322 324 325 327 325 321 321 324 328 331 331 324 319 326 332 332 329 332 334 333 334 328 322 322 322 321 322
341 339 339 338 337 338 338 338 338 338 339 338 338 336 336 338 337 336 334 335 338 338 338 338 337 337 337 337 335 328 320 319 322 324 323 322 323 323 326 327 324 322 329 336 336 336 331 327 332 335 332 330 333 334 334 334 329 324 325 323 321 322
338 337 337 337 337 338 338 339 338 338 339 340 340 338 338 338 338 337 334 336 338 338 337 337 337 337 336 336 337 334 328 324 321 321 323 324 325 324 323 326 326 324 331 338 337 336 335 332 334 334 331 332 335 334 333 334 332 329 327 325 322 321
338 337 337 337 337 337 338 338 338 339 339 340 339 339 339 338 337 336 336 337 337 337 337 337 337 337 337 336 336 335 332 331 328 322 320 323 330 328 324 328 327 325 333 338 336 335 334 333 334 334 333 334 334 334 333 333 333 331 329 327 324 323
337 336 335 335 336 336 336 337 337 338 338 339 338 336 336 338 338 337 337 337 336 337 337 337 337 337 336 336 336 334 331 333 332 330 324 324 334 332 327 333 331 328 335 337 335 334 333 333 334 333 334 334 332 332 332 332 332 332 331 329 327 325
337 335 334 334 336 337 336 336 335 336 336 336 337 336 336 337 337 337 336 335 336 337 337 337 337 336 335 335 335 334 333 332 331 333 330 328 335 333 329 334 335 334 336 336 334 334 333 333 333 332 334 333 331 329 330 332 332 332 331 330 329 327
338 336 335 336 336 337 337 336 335 335 335 336 337 338 337 334 334 337 337 336 337 336 336 336 335 336 334 334 334 333 334 334 332 332 331 331 333 333 332 333 335 336 335 336 334 333 333 333 332 332 334 332 331 332 333 332 332 332 332 331 329 326
338 336 336 336 336 336 337 335 335 336 336 336 337 338 336 333 333 336 337 338 337 336 335 334 334 335 334 334 335 333 334 335 334 332 331 332 332 333 334 333 333 335 335 336 334 333 332 332 331 331 333 332 332 334 334 333 333 332 332 332 328 326
338 337 336 335 336 336 336 336 336 336 336 336 336 337 337 336 334 334 336 337 337 335 334 334 333 334 335 334 334 333 334 335 334 333 332 332 332 332 333 333 332 334 336 335 335 335 332 332 332 331 333 333 332 333 334 333 334 332 332 332 330 328
337 337 336 336 336 336 336 336 335 336 336 336 337 337 337 337 335 333 335 335 335 334 334 333 333 333 334 334 334 333 333 333 332 333 332 331 331 332 332 333 332 333 335 334 335 335 333 333 333 332 333 333 332 333 333 333 334 333 332 332 332 332
335 336 336 336 336 336 336 336 335 336 336 337 338 337 337 337 335 332 332 333 333 334 334 332 331 332 333 333 333 333 332 332 332 331 329 329 330 331 331 332 332 333 335 333 333 335 334 333 333 333 334 333 333 333 333 333 333 332 331 331 331 332
335 335 336 336 337 337 337 337 337 337 337 337 338 337 337 337 336 334 334 334 334 335 333 332 331 330 331 331 332 332 331 330 331 332 329 328 330 331 331 331 332 333 335 334 332 335 335 334 333 333 335 334 333 333 333 333 332 331 330 330 332 333
336 336 335 336 337 338 338 338 338 338 337 337 337 338 337 337 337 336 335 334 334 334 333 332 332 331 329 330 331 331 330 329 330 331 330 328 330 332 331 330 331 331 334 334 333 334 335 334 333 332 333 335 333 333 331 330 331 332 331 331 333 333
335 334 334 334 337 339 339 339 339 339 338 338 338 338 337 338 337 336 335 335 333 333 333 332 331 331 329 329 331 331 330 329 328 330 330 328 329 332 332 331 330 329 331 332 333 334 334 333 333 331 333 335 334 332 329 328 331 332 331 331 332 332
336 335 336 337 338 339 339 339 339 339 339 338 338 337 337 337 336 335 335 334 334 333 334 333 332 331 330 329 330 331 330 328 328 330 329 327 328 331 332 331 330 328 329 331 332 333 332 332 333 332 333 334 333 332 330 330 332 332 331 331 331 331
337 337 338 338 337 337 339 340 339 339 339 338 338 338 338 337 337 336 335 334 333 333 332 332 332 331 331 330 330 330 330 329 327 327 327 326 327 329 330 330 330 329 328 330 331 332 333 333 333 332 332 332 330 331 332 331 332 331 330 332 331 330
337 336 337 337 337 338 339 339 339 339 339 339 338 338 338 337 337 336 336 334 333 332 331 332 332 332 331 330 329 329 328 327 326 325 326 327 327 327 328 327 328 327 327 329 329 331 333 332 332 332 332 331 330 331 332 331 332 331 330 332 331 331
336 336 336 335 336 336 337 337 337 338 338 338 337 336 336 335 335 336 335 334 334 333 332 331 332 332 332 332 330 328 327 326 326 325 326 327 327 326 327 326 326 326 327 329 329 332 333 331 330 331 332 332 331 332 332 331 331 330 330 330 331 331
335 335 335 334 333 333 333 334 334 335 336 335 335 334 335 335 336 336 335 334 334 332 332 332 333 333 333 333 331 329 327 326 326 325 326 327 327 326 327 327 325 325 328 329 330 332 332 330 330 330 331 331 331 331 332 331 330 330 329 330 330 331
335 334 334 333 332 331 332 332 332 333 334 334 335 336 336 337 337 337 336 335 333 331 330 331 332 333 333 333 332 331 328 327 326 326 326 326 327 327 326 326 325 325 326 328 330 330 330 330 329 329 330 331 331 331 331 331 331 331 330 330 330 330
335 335 334 333 332 332 333 333 332 333 335 335 336 337 337 337 336 336 336 334 333 330 328 328 329 331 332 332 332 331 329 327 327 326 325 326 327 327 326 325 325 325 325 326 329 329 329 330 330 330 330 330 331 331 330 330 332 332 331 330 330 330
335 334 334 334 334 334 334 334 334 334 335 336 337 337 336 336 335 334 334 333 332 332 330 329 329 331 332 332 331 331 330 329 328 327 326 325 326 326 326 325 325 325 324 325 327 327 327 330 331 331 330 329 330 331 329 329 331 331 332 331 330 330
335 335 334 334 334 334 334 334 335 335 336 337 337 337 336 336 334 333 333 333 333 332 331 330 331 331 332 331 330 331 331 331 331 330 327 325 325 326 325 325 325 326 326 325 326 326 325 328 329 329 330 329 329 329 329 330 330 330 331 332 331 331
333 333 334 333 334 334 335 335 336 336 336 337 337 337 336 336 335 333 332 332 333 333 333 332 332 332 331 331 331 330 330 331 332 332 330 326 325 326 326 326 325 325 326 326 326 325 326 326 327 328 328 328 328 327 328 330 330 329 331 331 331 332
330 331 332 332 332 334 334 334 335 336 336 336 336 337 336 335 335 334 332 332 332 332 333 333 333 332 331 331 331 331 331 331 331 332 331 328 327 326 327 327 326 324 325 326 327 327 327 328 328 327 327 327 327 327 328 329 328 328 330 330 331 331
328 328 329 330 331 332 332 332 333 334 335 335 336 336 336 336 336 335 334 333 332 332 333 333 332 331 331 331 331 331 331 331 331 332 331 330 329 328 328 328 328 327 326 327 328 328 328 329 328 328 327 326 325 326 327 327 326 326 328 329 330 330
326 326 326 327 328 329 329 330 330 331 332 333 334 334 335 336 336 336 335 334 333 333 333 332 330 329 330 330 330 330 331 331 331 332 332 332 331 330 330 329 329 328 328 329 329 329 329 329 328 328 327 327 326 325 325 325 326 327 327 327 328 329
324 324 324 325 325 326 327 327 327 328 328 329 330 331 333 334 335 335 335 334 334 333 333 332 330 330 330 329 330 330 330 329 329 330 332 332 332 332 332 330 330 330 330 330 331 330 330 329 327 327 327 327 327 326 325 324 325 327 327 327 329 329
323 323 323 323 324 324 325 325 325 325 326 326 327 328 330 332 333 334 334 334 334 333 333 332 331 331 330 330 331 331 329 329 330 331 331 330 331 331 332 331 330 330 330 330 330 331 330 329 328 327 327 327 326 325 325 325 326 326 328 329 329 329
322 322 322 322 323 323 323 323 324 324 324 324 324 325 326 328 331 333 333 333 333 332 332 332 331 331 331 331 332 332 331 330 331 331 331 330 329 330 331 331 331 331 331 330 330 330 330 329 329 328 327 326 325 325 326 326 326 325 327 328 328 329
321 321 321 321 322 322 322 322 323 323 322 322 323 323 324 325 327 329 331 332 332 331 331 331 330 330 331 331 331 331 331 331 330 329 330 331 330 330 330 330 331 331 331 330 330 331 330 329 329 328 327 326 326 327 328 327 326 324 326 328 328 329
321 321 321 320 321 321 321 321 321 322 321 321 322 323 323 324 324 325 328 330 331 331 331 331 330 330 330 330 330 331 331 331 330 328 327 328 329 330 330 330 330 331 331 330 330 330 330 330 329 329 328 328 329 329 328 327 326 324 325 328 329 329

ECMWFFLT2_850_thetae_087.txt.gz
Theta_e
332 329 324 321 320 319 319 318 316 316 315 315 313 312 312 312 313 313 313 312 313 314 315 317 318 317 319 321 323 326 326 324 322 318 317 318 317 316 313 309 309 310 310 310 315 322 326 329 331 331 332 332 332 331 329 326 320 315 314 314 314 315
334 329 323 322 323 324 323 322 321 320 318 316 315 313 313 312 313 312 312 312 312 313 314 315 315 316 317 319 321 323 324 324 322 320 319 320 319 317 314 310 309 309 310 310 313 320 325 328 331 332 333 334 333 330 328 328 322 316 314 315 316 316
335 329 324 324 326 328 328 328 328 326 324 321 320 319 316 315 314 313 312 311 311 312 313 314 313 313 315 317 320 321 322 323 322 322 321 322 321 319 316 311 309 309 309 310 313 319 325 328 330 331 332 334 335 331 328 328 324 318 316 317 317 318
336 333 327 327 329 330 331 331 331 331 329 328 327 326 322 321 320 316 314 315 317 320 320 321 319 313 313 315 318 319 319 321 322 322 322 323 323 322 319 314 310 310 310 311 314 319 324 327 327 328 331 333 334 333 332 330 326 323 321 320 320 320
338 336 333 333 333 333 333 332 332 332 332 332 331 329 326 327 327 323 321 323 327 328 325 328 328 322 316 315 319 319 317 319 320 321 322 324 325 324 321 317 312 310 311 313 315 319 323 326 326 327 331 335 334 334 334 332 329 327 324 322 321 321
339 338 337 337 337 336 335 333 333 333 333 333 333 331 330 331 332 330 328 330 333 332 328 331 333 332 327 322 323 321 318 316 317 319 321 323 325 325 324 320 315 312 311 314 316 317 320 324 327 329 330 334 335 334 334 333 331 328 325 323 321 321
340 339 339 339 338 338 336 335 335 336 335 335 334 332 333 334 335 334 332 332 334 334 334 334 334 335 334 330 329 326 322 317 314 316 319 321 323 325 326 323 319 319 320 321 322 322 322 325 328 330 328 331 335 334 334 333 331 330 328 326 323 321
340 339 340 339 338 339 338 337 337 338 338 338 337 335 335 336 336 336 334 334 335 335 335 335 335 335 334 334 333 332 328 320 315 314 315 318 320 323 325 326 324 325 329 331 332 331 331 331 331 332 331 332 335 334 334 333 333 332 330 328 323 320
340 340 339 339 338 339 339 339 338 339 339 339 339 338 337 338 338 337 336 335 336 335 335 335 334 333 333 333 334 335 333 326 319 315 314 315 316 319 321 325 325 326 332 336 336 335 335 334 332 334 333 332 334 334 333 333 333 333 331 329 325 323
340 339 339 338 338 339 339 339 339 339 339 338 337 337 338 338 337 337 337 336 336 335 334 334 333 333 333 333 335 336 335 332 326 318 315 315 314 316 319 324 326 325 329 335 337 335 336 335 332 334 334 333 334 333 333 333 332 332 331 331 329 328
339 337 337 337 337 338 338 337 337 337 337 336 336 335 336 337 337 337 336 336 336 335 334 334 333 333 334 335 336 336 336 334 331 323 318 317 316 316 319 326 331 329 327 332 336 335 335 334 333 333 333 333 333 332 333 333 331 330 331 331 330 329
337 336 336 336 337 337 337 336 336 335 335 335 335 335 335 336 336 336 336 335 334 333 333 333 333 333 333 335 335 335 336 334 332 329 323 319 317 317 321 327 332 332 330 332 336 336 335 334 333 333 332 332 333 332 332 332 332 331 331 331 330 329
337 337 337 336 336 337 336 336 336 335 335 334 334 335 334 334 333 335 335 334 334 333 333 333 332 332 332 334 335 335 335 334 332 332 329 324 320 318 320 325 329 331 332 333 335 336 335 333 333 333 331 332 333 332 331 332 333 332 331 331 330 329
338 337 337 336 336 337 337 337 336 336 335 334 334 334 333 332 332 333 333 333 334 334 333 332 332 331 332 334 335 335 334 334 333 333 332 328 325 321 319 322 327 330 331 333 335 336 334 333 332 332 332 332 332 332 332 333 333 332 332 331 329 327
338 337 337 336 336 337 337 337 336 336 335 334 334 334 334 332 332 333 332 333 335 336 335 334 333 333 333 334 334 335 335 334 334 335 334 332 330 327 324 324 327 328 328 331 334 336 334 333 332 331 331 331 331 331 332 333 333 333 332 331 329 326
338 337 337 336 337 336 336 336 336 336 336 335 334 334 336 335 334 334 333 333 334 335 335 335 335 333 333 333 333 334 335 334 334 334 334 333 331 330 329 328 328 328 327 329 333 335 334 333 333 332 331 331 331 330 331 332 333 333 333 332 329 326
337 337 337 336 337 336 336 336 336 337 337 336 333 333 336 336 335 335 335 334 333 333 334 335 335 334 332 331 332 334 334 333 333 332 332 332 332 332 331 329 328 329 328 328 331 334 334 332 333 333 332 331 331 331 330 331 332 333 333 332 330 328
337 336 337 337 337 337 337 337 337 338 338 337 335 334 336 336 335 335 335 335 335 334 334 334 334 334 332 331 330 332 333 333 333 331 331 331 331 331 330 329 328 329 329 329 330 334 334 333 333 334 332 331 330 331 331 329 330 332 332 332 331 329
335 335 336 337 338 338 339 338 338 338 338 337 337 336 336 335 335 335 335 335 335 334 334 333 333 333 332 331 330 330 331 333 332 331 330 330 330 329 329 328 329 330 330 329 330 334 334 333 333 334 333 331 330 331 332 330 328 330 332 332 331 331
335 335 337 338 339 339 339 339 339 338 338 338 337 336 336 336 336 334 333 334 334 334 333 333 333 333 332 331 330 330 331 332 332 331 329 329 329 329 328 328 330 331 331 330 331 333 334 333 333 333 333 332 331 331 331 331 328 329 331 332 332 332
336 337 337 338 338 339 339 338 338 338 338 338 337 337 336 335 334 333 333 333 334 334 333 333 333 332 332 331 330 330 330 331 332 331 329 328 329 329 328 328 331 332 331 330 330 330 332 333 333 333 332 331 331 330 330 330 330 330 331 332 332 332
336 336 337 337 337 337 338 338 338 338 338 338 338 338 336 332 330 333 334 334 334 334 333 333 332 332 332 332 331 331 330 330 331 331 329 327 328 328 327 327 330 332 331 331 330 329 330 331 332 332 331 330 331 331 330 329 330 330 331 332 332 332
335 335 336 336 336 337 338 338 338 338 338 338 337 336 334 331 331 334 335 334 334 334 333 332 331 331 331 332 332 331 330 329 330 330 329 328 327 327 326 327 330 332 332 332 331 330 329 329 330 331 331 332 331 331 331 329 329 330 332 332 332 332
334 334 333 333 334 335 335 336 336 337 337 336 336 335 333 333 334 335 335 334 333 333 331 330 329 330 331 332 332 332 331 330 329 329 329 328 326 325 326 327 329 331 331 331 332 331 330 330 330 329 330 332 331 331 331 329 329 330 331 332 331 332
333 333 332 331 331 332 332 333 334 335 335 335 335 336 336 336 335 335 335 334 333 332 331 329 328 328 329 331 332 333 332 331 330 329 328 328 326 325 326 327 328 328 329 329 329 329 329 330 330 329 329 331 331 331 331 330 329 330 330 331 331 331
334 334 334 333 332 332 331 331 333 334 335 336 336 336 336 336 335 335 334 334 333 332 331 330 328 328 328 329 331 332 333 332 331 329 328 328 327 326 326 326 327 327 328 329 328 328 329 330 331 331 330 330 330 329 329 329 330 331 331 331 331 331
335 334 334 335 334 334 333 332 333 334 335 336 336 336 336 336 336 335 334 333 333 333 332 331 330 329 329 329 330 331 332 332 332 330 328 327 327 326 326 326 326 327 328 329 329 329 329 330 331 331 331 330 329 328 328 329 330 330 331 331 331 330
334 333 333 335 334 334 334 333 334 335 335 336 336 336 336 336 336 336 334 333 333 333 333 333 332 331 331 331 331 331 332 332 332 331 330 329 328 327 326 325 326 326 326 327 328 329 329 329 330 330 330 330 330 329 329 329 329 329 330 331 331 330
333 333 333 333 334 333 333 334 335 335 336 336 336 335 336 336 336 336 335 334 333 332 332 332 333 333 332 332 332 332 332 332 331 331 331 331 331 330 328 326 326 326 326 326 326 327 328 328 329 329 329 329 329 330 330 329 330 330 329 329 330 330
330 330 330 331 332 333 333 334 335 335 335 335 335 335 336 335 335 335 335 335 334 333 332 332 333 333 333 332 332 332 332 331 331 331 331 330 331 331 331 328 326 326 326 326 325 326 328 328 328 329 328 329 329 330 330 330 329 330 329 329 329 330
326 326 327 328 329 331 331 332 332 333 333 333 333 334 335 335 335 335 335 335 335 334 334 333 333 333 333 332 332 331 331 331 331 331 330 330 330 331 331 330 328 327 327 327 326 327 328 328 329 329 328 329 330 330 329 329 328 328 328 329 329 329
324 324 325 325 326 327 327 327 328 329 330 330 331 331 333 334 333 333 333 334 334 334 334 334 333 334 333 333 332 331 331 330 330 330 330 330 330 330 331 331 330 329 329 328 327 327 327 327 328 329 329 329 330 329 328 327 327 326 326 327 328 328
322 322 323 324 324 324 324 324 324 325 326 327 327 328 329 331 332 332 332 332 332 333 333 333 333 333 333 332 332 332 331 331 330 330 330 330 330 330 330 331 331 331 330 330 329 328 327 326 327 329 329 329 329 328 328 327 327 327 326 327 328 327
321 320 320 322 323 323 323 322 323 323 323 323 323 324 326 328 329 330 330 331 331 331 332 332 332 331 331 331 331 331 331 331 331 331 331 331 331 331 330 330 331 331 331 331 331 330 329 328 328 329 329 329 329 329 329 328 328 327 327 327 328 327
320 320 319 320 321 321 321 321 321 321 321 321 321 321 323 324 326 327 329 329 329 330 330 330 331 330 331 331 330 330 330 331 331 331 331 331 331 331 330 330 330 330 330 331 331 331 330 330 330 329 329 330 330 330 330 330 329 328 327 326 326 326
320 319 319 319 319 319 319 319 319 319 319 320 320 320 320 321 322 324 326 328 328 329 329 330 330 330 330 330 330 330 329 330 330 330 331 331 330 330 329 329 330 330 330 330 331 331 330 330 330 330 330 331 330 330 330 330 330 329 328 326 325 326
319 319 319 318 318 318 318 318 318 318 318 319 319 319 319 319 320 321 324 326 327 328 328 329 329 329 330 330 330 330 330 330 330 330 330 330 330 330 329 329 329 329 329 330 330 330 330 331 331 330 330 330 330 330 330 330 330 329 328 326 326 326

ECMWFFLT2_850_thetae_093.txt.gz
Theta_e
319 319 319 318 317 316 315 315 315 314 311 310 310 310 310 310 311 313 313 314 315 315 317 321 323 324 324 323 321 318 315 313 311 310 310 310 309 309 309 309 314 320 324 327 329 330 329 327 327 327 326 325 325 324 324 325 325 322 318 316 316 315
319 318 318 318 317 316 315 315 315 314 313 311 310 310 310 310 310 311 313 314 316 316 317 319 321 323 323 323 323 321 318 314 312 311 310 310 310 309 310 309 312 318 324 326 327 330 329 327 327 328 328 327 325 326 328 328 328 327 323 321 319 318
319 318 317 316 316 315 315 315 315 315 314 313 311 310 310 310 310 310 311 314 316 317 316 317 318 319 320 321 321 321 321 318 314 312 311 311 311 310 309 309 310 315 322 325 326 329 330 329 328 328 329 328 327 329 330 330 330 330 328 325 322 321
319 318 316 316 315 315 315 315 315 314 314 314 312 312 311 311 310 310 311 312 314 316 315 314 315 316 317 318 319 320 321 320 317 314 313 312 312 311 310 309 309 312 319 323 326 329 330 330 329 328 328 329 330 331 330 330 330 330 330 329 327 325
320 318 317 317 318 319 319 318 317 316 316 315 314 313 312 311 310 310 310 311 312 314 315 315 314 314 314 316 317 318 320 321 319 317 315 314 313 313 312 310 308 310 316 322 325 328 330 330 330 329 329 330 331 331 330 330 329 330 332 332 331 329
321 320 320 322 324 325 325 325 324 323 323 321 320 319 317 316 314 312 311 310 311 313 316 320 319 317 316 315 315 316 318 320 320 319 317 316 315 315 315 313 309 309 313 320 324 327 330 330 330 331 331 330 330 330 330 330 330 331 333 332 332 331
323 322 324 326 328 329 329 329 330 330 329 329 328 327 326 325 322 318 315 312 312 317 321 324 325 325 325 323 322 321 319 318 318 319 319 318 317 317 317 316 312 309 310 316 322 326 329 330 331 332 332 331 331 330 330 331 332 332 333 332 332 332
326 324 326 329 331 332 332 331 332 332 332 332 332 331 330 331 329 324 321 321 322 325 326 326 326 327 331 332 332 331 329 324 319 318 318 318 319 319 320 319 315 311 310 313 319 325 329 330 331 332 332 332 331 331 331 332 333 333 333 333 332 331
330 326 328 331 333 335 333 332 333 333 333 334 333 332 332 332 333 331 328 328 330 331 331 331 330 330 331 333 334 334 334 333 329 323 319 317 319 321 321 322 319 313 311 313 318 326 329 328 330 331 332 332 331 331 332 332 332 332 332 332 332 331
333 331 332 335 336 336 335 334 335 335 335 335 335 334 334 334 334 334 333 332 332 333 333 334 334 333 333 333 334 334 334 335 335 332 326 319 318 321 322 323 323 317 312 314 321 326 326 327 331 332 332 332 331 331 332 332 332 332 332 332 332 331
337 336 336 337 337 338 337 336 336 336 337 337 337 336 336 336 336 335 335 334 334 334 334 334 334 335 335 335 335 334 334 334 335 335 333 326 318 319 322 323 324 321 316 315 320 324 325 329 333 334 333 332 332 332 332 332 332 332 332 332 332 331
338 338 337 337 338 338 338 338 337 337 337 337 337 336 336 336 336 335 335 335 335 335 335 335 335 335 335 335 335 334 334 334 335 335 336 333 325 319 319 321 323 324 322 320 322 326 329 333 335 334 333 333 333 333 333 333 333 333 333 332 332 331
338 337 337 337 338 338 337 337 337 336 336 336 336 335 335 336 335 335 334 334 335 335 335 335 335 335 335 335 334 334 334 334 335 335 335 335 333 327 322 320 320 322 323 324 326 329 332 334 335 335 335 333 333 333 333 332 333 333 333 332 332 332
337 337 338 337 337 337 336 335 335 335 335 335 335 335 335 335 335 334 333 333 334 334 335 335 335 335 335 334 334 334 334 334 334 335 335 335 335 334 330 325 320 319 321 322 324 326 329 331 331 332 334 334 334 333 332 332 332 332 332 332 332 331
336 336 337 337 337 336 335 334 334 334 334 335 335 334 334 334 334 333 332 333 333 333 334 334 335 335 334 334 333 333 333 333 334 334 334 334 334 335 334 331 326 321 318 320 323 325 326 327 328 329 332 334 334 334 332 331 331 331 331 331 331 331
336 335 336 337 337 336 334 334 334 334 334 334 334 334 334 334 334 334 333 334 334 334 334 334 335 335 334 334 333 333 332 332 333 333 333 333 334 334 334 333 331 328 323 320 323 328 329 329 329 329 330 332 334 334 332 332 331 331 331 331 331 331
335 334 335 336 336 335 335 335 335 334 334 334 334 334 335 334 335 335 335 335 335 335 334 334 334 334 334 333 333 333 333 332 332 332 332 332 333 333 333 333 333 332 329 325 325 328 330 330 330 330 331 332 333 334 333 332 331 331 331 331 331 331
335 335 335 336 336 335 335 335 335 335 334 335 335 334 334 335 335 335 335 334 335 335 335 335 335 334 334 333 334 334 333 333 332 331 331 332 332 333 333 333 333 333 333 331 329 329 330 330 329 329 331 332 331 332 332 332 332 331 331 331 331 331
336 335 336 336 336 335 334 335 335 335 335 335 335 335 335 335 335 335 334 334 334 334 335 335 335 335 334 334 334 334 333 333 332 331 330 331 332 333 333 333 333 332 333 333 333 332 332 330 329 329 329 330 330 330 331 332 332 332 332 331 331 331
336 336 336 336 336 335 335 335 336 336 336 335 335 335 335 335 335 334 334 334 333 333 333 334 334 334 334 333 333 333 333 333 332 332 331 331 331 331 333 334 333 333 332 332 333 333 333 332 331 330 330 329 329 330 331 332 332 332 332 332 331 331
336 336 336 336 336 336 336 336 336 336 336 336 336 335 335 335 334 334 334 334 332 333 333 334 334 334 334 333 332 332 331 331 332 331 331 331 330 331 332 333 333 333 332 332 332 332 331 331 331 330 330 329 329 330 332 332 332 332 332 332 332 331
336 336 335 336 336 337 337 337 336 336 336 336 336 336 335 335 335 335 333 332 332 333 333 334 334 334 333 333 332 331 331 331 331 332 331 331 330 330 331 332 332 332 332 331 331 330 330 329 329 330 330 330 330 330 332 332 333 333 332 332 332 332
336 335 335 335 337 337 337 337 337 336 336 336 336 336 335 335 335 333 332 332 333 334 334 334 333 333 332 332 331 331 330 331 331 332 332 332 331 331 331 331 332 332 332 331 330 330 329 329 329 330 331 332 331 331 331 332 332 332 332 332 332 332
336 335 335 335 336 336 337 337 337 336 336 336 336 336 335 335 333 332 333 334 335 335 334 333 332 332 331 330 330 329 329 329 330 331 332 332 332 332 331 330 330 331 331 331 330 329 329 329 329 330 332 332 331 331 331 331 331 331 331 331 332 332
335 335 336 335 335 335 335 336 336 336 336 336 336 334 334 334 332 332 334 335 334 334 334 333 333 332 332 330 329 329 329 328 329 331 332 332 332 332 332 332 330 330 330 330 330 329 328 328 329 330 332 332 331 330 330 330 330 330 330 330 331 331
334 334 335 334 334 334 334 334 335 335 336 336 336 335 334 334 333 332 334 334 334 334 334 334 333 333 333 332 331 330 330 330 331 331 332 332 332 331 331 332 331 330 329 329 329 329 328 327 328 329 331 332 331 331 331 330 330 330 330 329 330 331
332 332 332 333 333 333 333 333 333 333 334 335 336 335 335 335 334 334 335 334 334 334 335 334 334 333 333 333 332 332 332 332 332 332 332 332 332 331 331 331 331 331 330 329 328 328 328 327 328 329 330 330 331 331 331 329 329 330 329 329 329 329
331 332 331 331 331 331 331 331 332 332 332 334 335 335 335 334 334 334 335 334 334 334 334 334 333 333 333 332 332 332 332 333 333 332 332 331 331 331 331 331 330 330 330 330 329 329 329 329 329 329 329 330 331 331 330 329 330 330 329 329 329 329
331 331 331 330 330 330 330 331 331 331 331 332 333 334 334 334 334 334 334 334 333 333 332 332 332 333 333 332 331 332 332 333 333 332 332 331 331 330 331 330 330 330 330 330 330 330 330 330 330 330 329 329 330 330 330 329 330 331 331 330 329 329
330 330 330 329 330 330 330 331 331 330 331 332 332 332 332 332 332 332 332 332 332 331 331 331 332 332 332 331 331 331 331 332 332 332 331 331 330 330 330 330 330 330 330 330 330 330 330 330 330 330 329 329 329 329 329 328 329 330 331 331 330 330
330 329 328 328 329 329 330 331 332 331 331 332 332 332 332 331 331 331 331 330 330 330 329 330 331 331 331 330 329 330 330 331 331 331 331 330 330 330 330 330 330 330 330 330 330 330 330 330 329 329 330 330 329 329 329 328 328 328 330 330 330 330
327 327 327 326 327 327 328 329 330 330 330 330 330 331 332 331 330 330 330 330 329 329 328 329 330 330 329 329 329 329 330 330 330 330 330 330 330 329 329 329 330 330 330 330 329 329 330 330 330 330 330 330 330 329 329 329 328 328 328 329 330 330
325 324 324 324 325 325 326 327 327 328 328 329 328 329 329 329 329 329 328 329 328 328 327 326 327 327 327 327 328 328 328 329 330 330 330 329 329 329 329 329 329 329 330 330 329 330 329 330 330 330 330 330 330 330 329 329 329 328 328 329 330 330
322 322 321 321 322 323 324 325 326 326 327 327 327 327 327 327 327 326 326 326 326 326 325 325 325 326 326 326 326 326 326 327 328 329 329 329 328 328 328 329 329 329 329 329 329 329 329 329 329 330 330 330 330 330 329 329 329 329 328 329 329 329
320 319 319 318 319 320 321 322 322 323 324 324 324 324 324 324 323 323 323 323 323 323 323 323 324 325 325 324 324 324 324 324 326 327 328 328 328 328 329 329 329 328 328 328 328 328 329 328 328 328 329 329 329 329 329 329 329 330 329 329 329 328
318 317 317 316 316 317 317 318 318 319 319 319 320 320 320 320 320 320 320 320 321 321 321 321 322 323 324 324 323 323 323 322 323 325 326 327 328 328 328 328 328 328 327 327 328 328 329 328 328 328 328 329 329 329 329 329 329 330 330 330 329 329
316 315 315 315 315 315 316 316 317 317 317 317 317 317 318 318 318 319 319 319 319 320 320 319 320 321 322 322 322 322 322 322 323 324 325 326 327 326 326 326 327 327 327 327 328 328 328 328 328 328 328 329 329 330 329 329 329 329 330 330 330 330

ECMWFFLT2_850_thetae_096.txt.gz
Theta_e
318 318 318 318 318 317 315 313 311 310 309 310 310 309 311 314 319 325 328 329 330 330 330 330 329 327 326 325 324 320 316 314 312 312 311 310 309 309 311 314 319 324 328 329 329 327 326 325 323 323 322 322 322 323 324 324 323 322 320 318 318 318
318 318 317 317 316 315 314 314 313 312 310 309 310 309 310 312 315 322 326 323 321 322 323 325 326 326 324 323 324 321 317 314 312 312 312 311 310 309 311 315 320 324 327 328 328 327 326 325 325 323 323 323 323 325 325 325 324 323 323 321 320 320
318 318 317 317 316 315 315 314 315 313 312 310 310 309 309 310 311 316 319 317 316 317 317 319 321 322 321 320 322 321 319 315 313 312 313 313 312 310 310 314 320 324 327 328 327 326 325 325 326 325 323 323 325 326 326 326 326 324 324 324 323 322
319 318 317 317 316 315 315 314 315 314 313 311 310 310 309 310 311 313 314 313 315 316 316 316 317 318 318 318 319 320 320 318 315 314 313 314 315 313 310 311 318 324 327 328 328 327 326 326 326 327 325 323 325 327 326 327 326 325 325 326 327 325
320 318 316 316 315 315 314 314 314 314 314 312 311 310 310 310 310 312 312 312 313 315 315 315 314 314 315 317 318 318 319 319 318 316 315 315 316 316 313 310 313 323 328 328 328 328 328 328 328 328 327 324 326 327 326 326 326 326 326 327 328 327
320 318 317 316 316 316 316 315 315 315 314 313 312 311 312 311 311 311 311 311 313 314 316 319 318 316 316 316 318 318 318 319 319 318 317 316 317 318 317 313 310 317 327 329 329 330 330 330 330 329 328 327 327 327 326 326 326 326 327 328 328 329
320 319 319 319 320 321 321 321 321 320 320 320 318 318 319 318 315 313 312 312 313 317 322 327 327 326 324 322 322 322 322 321 319 319 318 318 319 319 320 318 312 311 321 330 330 331 331 330 331 331 330 329 328 327 325 326 327 328 328 329 329 329
320 320 322 324 326 326 326 327 328 327 327 328 326 326 328 326 322 316 314 317 320 325 328 330 331 333 332 331 331 331 331 329 325 322 320 319 320 320 321 321 318 311 313 326 331 331 331 331 331 332 331 331 330 328 326 327 328 329 329 330 330 330
321 322 325 328 330 330 329 330 331 331 331 331 330 329 331 331 330 324 321 323 327 331 332 332 334 334 334 334 334 335 335 334 332 330 327 324 321 321 322 322 323 317 310 318 329 332 331 331 331 332 332 331 331 330 328 328 329 330 330 330 331 331
322 324 327 329 331 331 331 331 331 332 332 332 332 331 331 332 334 333 330 328 329 331 332 333 334 334 334 334 335 335 335 335 335 334 333 331 326 322 322 323 324 322 313 313 325 332 331 331 331 331 331 330 330 330 330 330 330 331 331 331 332 332
326 325 328 331 332 333 332 332 333 333 335 335 334 333 333 334 335 336 335 333 333 333 333 333 333 334 334 334 334 334 334 334 334 335 335 334 332 326 322 323 325 325 318 313 322 330 331 331 330 331 331 331 331 330 331 332 331 332 332 332 332 332
330 328 331 333 334 335 335 335 335 336 337 336 337 336 336 336 336 336 336 335 335 334 334 334 334 334 334 334 334 334 334 334 334 335 335 335 335 332 325 321 322 325 323 318 321 327 329 330 329 329 330 332 332 332 332 333 332 333 332 332 332 332
334 334 336 337 336 337 337 337 337 337 337 337 337 337 337 337 336 336 336 335 334 334 334 334 334 334 334 334 334 333 333 333 334 334 335 335 335 334 331 326 323 323 324 323 324 327 329 329 327 326 328 332 333 333 333 333 333 333 332 332 333 332
337 337 338 338 338 338 338 337 337 337 336 336 335 336 336 336 335 335 334 334 333 333 334 334 334 334 334 334 334 333 332 332 333 333 334 334 334 334 334 333 330 327 325 324 325 327 328 328 327 327 330 332 333 333 333 334 334 333 332 331 332 332
338 338 338 338 338 338 338 337 336 335 335 334 334 334 334 335 335 334 333 333 332 333 333 333 333 334 333 334 333 333 333 332 332 332 332 333 334 334 334 334 334 332 329 325 324 325 326 327 328 329 330 331 330 331 332 333 334 334 333 331 331 331
338 338 338 338 338 338 337 335 335 334 334 334 334 334 334 334 334 334 333 333 333 333 334 334 333 333 333 333 333 333 333 333 333 332 332 332 333 333 334 334 333 334 332 331 327 325 326 326 327 328 329 330 330 329 330 331 333 333 333 331 331 331
338 337 338 338 337 336 336 335 334 334 334 334 334 334 334 334 334 335 335 335 335 334 334 334 334 334 333 333 333 333 333 334 334 333 332 331 331 332 333 333 333 334 334 333 332 329 327 326 327 328 329 330 329 328 328 330 331 332 332 332 331 331
337 336 337 337 336 335 335 335 335 334 334 334 335 335 334 335 335 335 335 335 335 335 335 334 334 334 334 334 334 333 333 334 334 334 333 332 331 331 332 333 333 334 334 333 333 332 331 329 329 330 329 329 328 328 327 328 329 330 331 331 331 331
336 336 336 336 335 335 335 335 335 335 335 335 335 335 335 335 336 336 335 335 335 335 334 334 334 334 334 334 333 333 333 333 333 333 333 332 331 330 331 332 332 332 333 333 332 332 332 332 332 332 331 331 331 331 329 328 328 329 329 330 331 332
336 336 336 336 336 335 335 335 335 335 335 336 336 336 336 336 336 336 335 335 335 335 334 334 333 333 333 333 332 332 332 332 331 331 331 331 331 330 330 330 330 331 331 332 333 332 332 332 332 331 331 331 331 331 331 329 328 328 328 329 330 331
336 336 336 336 336 335 335 335 335 336 336 337 336 336 336 336 336 336 336 335 335 335 334 334 333 333 332 332 331 331 331 330 331 331 331 331 331 331 331 330 330 330 330 331 332 332 331 331 330 330 330 330 330 329 330 330 329 328 328 329 330 331
336 335 335 335 335 335 335 335 336 336 337 337 337 337 337 336 336 336 336 335 334 334 334 334 334 333 332 331 331 330 329 329 329 330 330 331 331 331 331 331 331 330 330 330 330 331 331 330 330 329 329 329 329 328 329 329 329 329 329 329 330 331
335 335 334 334 335 335 336 336 336 336 336 337 337 336 336 336 336 335 335 334 334 334 334 334 334 333 332 332 331 330 329 328 328 328 329 329 330 331 331 331 330 331 331 330 330 330 331 331 330 329 329 329 329 328 328 328 328 329 330 330 330 331
335 335 335 334 334 334 335 335 335 335 336 336 336 336 336 337 336 335 335 334 334 335 334 334 334 333 333 333 332 331 331 330 329 329 329 329 330 331 332 331 331 331 331 331 330 330 330 330 330 329 329 329 329 329 329 328 328 329 329 330 330 330
335 334 334 334 334 334 334 335 335 335 336 336 336 336 336 336 335 334 334 333 334 334 334 334 334 333 333 333 333 332 332 332 331 331 331 331 331 331 331 331 331 331 331 331 331 330 329 329 329 329 329 329 329 329 329 329 329 328 328 329 330 329
334 333 333 334 334 334 334 334 335 335 335 335 335 335 335 334 332 331 331 331 332 333 333 332 333 333 332 332 332 332 332 332 331 331 331 331 331 331 331 331 331 331 331 330 330 330 329 329 328 328 328 328 329 329 329 329 329 329 328 328 329 329
332 332 332 333 333 333 333 333 333 333 333 333 333 333 333 332 331 330 331 331 331 331 331 331 331 331 331 331 331 331 331 331 331 331 331 331 331 331 331 331 330 331 331 330 331 330 329 329 329 329 328 328 328 328 328 329 329 329 329 329 328 328
331 331 331 331 331 331 330 331 330 331 331 331 330 330 331 331 331 330 331 331 331 331 331 330 330 329 330 330 330 330 330 329 329 330 331 331 331 331 331 331 330 330 330 330 332 332 330 329 329 329 329 328 328 328 329 329 329 329 329 329 328 328
330 330 330 330 329 329 329 329 329 329 329 329 329 329 330 330 330 330 330 330 330 329 329 329 329 328 329 330 329 329 328 328 328 328 329 330 331 331 330 330 330 330 330 330 330 330 330 329 328 329 329 329 329 329 329 329 329 329 329 329 329 328
330 330 330 329 329 328 327 328 328 329 329 329 328 329 329 329 329 329 329 329 329 329 328 328 327 327 328 329 329 328 327 327 327 327 328 329 329 330 330 330 329 330 330 329 329 329 329 328 328 328 328 328 329 329 329 329 329 329 329 328 328 328
330 330 329 329 328 327 327 327 327 327 328 328 328 328 328 328 328 328 328 328 328 328 327 326 326 326 326 327 327 326 326 326 326 326 327 327 328 329 329 329 329 328 329 329 329 329 329 329 329 329 329 328 328 329 329 329 329 329 328 328 328 328
329 328 328 327 327 327 327 327 327 326 326 327 327 327 326 326 327 327 327 327 327 327 326 325 325 324 323 324 324 324 324 324 325 325 324 326 327 328 328 328 328 327 328 328 328 329 329 329 329 329 329 329 329 329 329 329 329 329 328 328 328 329
327 327 326 326 325 325 325 326 326 326 326 326 327 327 327 326 327 327 327 326 326 325 324 323 323 322 322 322 322 322 322 322 322 322 322 323 325 326 327 327 327 326 327 328 328 328 328 328 328 328 328 328 329 329 329 329 328 328 328 328 328 328
325 325 325 323 322 322 323 324 324 325 326 326 326 326 326 326 325 325 324 324 323 323 322 321 321 321 320 321 321 321 321 321 321 321 321 321 322 323 325 326 326 325 326 327 328 328 327 327 327 327 328 328 328 328 328 328 327 327 328 328 327 327
324 323 322 320 319 319 320 321 322 323 324 324 324 324 324 323 323 322 321 321 320 320 319 319 319 319 319 319 320 320 320 320 319 319 320 320 320 321 322 324 324 324 325 325 326 326 326 326 326 326 327 327 328 328 327 328 328 328 328 328 328 328
321 320 318 317 317 317 318 319 319 320 321 321 321 320 320 320 319 319 319 318 318 318 318 318 318 318 318 318 318 318 318 319 319 319 319 319 319 319 321 323 323 323 323 323 324 325 324 325 325 325 325 326 326 326 326 327 327 328 328 328 328 328
318 317 316 315 315 316 316 317 317 317 317 317 318 317 317 317 317 317 317 316 316 316 316 316 316 317 317 317 317 318 318 318 318 318 318 318 318 318 320 322 322 322 322 322 323 325 325 325 325 324 324 324 324 324 325 326 326 327 327 328 328 328